Location: Campestrin
(46.4667°N, 11.7167°E)
Time: 04:29:01
(UTC+00:00)

COSMOS 2487 - Pass Details

Date: 18 April 2021
Orbit: 432 x 434 km, 74.7° (Epoch: 16 May)

Event Time Altitude Azimuth Distance (km) Brightness Sun altitude
Rises 18:56:50 0° 196° (SSW) 2,403 6.0 -9.1°
Reaches altitude 10° 18:58:53 10° 196° (SSW) 1,540 5.0 -9.4°
Maximum altitude 19:02:15 79° 110° (ESE) 450 2.2 -9.9°
Drops below altitude 10° 19:05:40 10° 23° (NNE) 1,555 5.2 -10.4°
Sets 19:07:45 0° 22° (NNE) 2,429 6.2 -10.7°
